Flag for Germany Weather past 2 weeks in Fürstenwalde/Spree, Brandenburg, Germany

Now
55 °F

Overcast.


Feels Like: 54 °F
Forecast: 44 / 67 °F
Wind: 5 mph from Northwest

Location: Lindenberg

Current Time: May 27, 2015 at 5:05:18 PM

Latest Report: May 27, 2015 at 4:00 PM


Visibility: 25 mi

Pressure: 30.11 "Hg

Humidity: 56%

Dew point: 39 °F

Location of Fürstenwalde/SpreeLocation

Historic Weather in Fürstenwalde/Spree — Graph

°F

Fürstenwalde/Spree temperature yesterday

Maximum temperature yesterday: 61 °F (at 3:00 PM)
Minimum temperature yesterday: 52 °F (at 7:00 AM)
Average temperature yesterday: 55 °F

Past Weeks' High & Low Weather Summary

 TemperatureHumidityPressure
High77 °F (May 12, 4:00 PM)97% (May 15, 6:00 AM)30.31 "Hg (May 15, 6:00 AM)
Low39 °F (May 15, 6:00 AM)25% (May 24, 6:00 PM)29.60 "Hg (May 19, 4:00 AM)
Average55 °F64%30.00 "Hg
* Reported May 12 4:00 PM — May 27 4:00 PM, Fürstenwalde/Spree, Weather by CustomWeather, © 2015

Note: Actual official high and low records may vary slightly from our data, if they occured in-between our weather recording intervals... More about our weather records

Advertising

Fürstenwalde/Spree weather history for previous 24 hours

 ConditionsComfort  
Time TempWeatherWind HumidityBarometerVisibility
4:00 PM
Wed, May 27
55 °FOvercast.5 mph56%30.11 "Hg25 mi
3:00 PM56 °FOvercast.6 mph53%30.11 "Hg25 mi
2:00 PM53 °FOvercast.7 mph61%30.12 "Hg25 mi
1:00 PM52 °FSprinkles. Overcast.5 mph69%30.12 "Hg25 mi
12:00 PM51 °FOvercast.5 mph68%30.12 "Hg12 mi
10:00 AM50 °FOvercast.5 mph73%30.12 "Hg9 mi
9:00 AM50 °FScattered clouds.7 mph72%30.12 "Hg9 mi
8:00 AM47 °FOvercast.5 mph82%30.12 "Hg12 mi
7:00 AM47 °FPartly sunny.5 mph82%30.12 "Hg12 mi
6:00 AM44 °FScattered clouds.3 mph86%30.11 "Hg12 mi
4:00 AM45 °FClear.3 mph82%30.09 "Hg19 mi
3:00 AM48 °FClear.3 mph79%30.07 "Hg25 mi
2:00 AM49 °FOvercast.3 mph76%30.07 "Hg25 mi
1:00 AM51 °FOvercast.2 mph72%30.07 "Hg25 mi
12:00 AM51 °FOvercast.2 mph74%30.07 "Hg25 mi
11:00 PM
Tue, May 26
53 °FOvercast.2 mph66%30.06 "Hg25 mi
10:00 PM53 °FOvercast.2 mph70%30.05 "Hg25 mi
9:00 PM53 °FOvercast.2 mph71%30.03 "Hg28 mi
8:00 PM54 °FSprinkles. Overcast.2 mph69%30.02 "Hg25 mi
7:00 PM57 °FOvercast.5 mph53%30.01 "Hg31 mi
6:00 PM58 °FPartly sunny.6 mph50%30.00 "Hg31 mi
5:00 PM57 °FOvercast.6 mph49%30.00 "Hg31 mi
Weather by CustomWeather, © 2015

See weather overviewHow to use our weather pages